[[{"header":{"parameterUnit":"m.s-1","parameterCategory":2,"la1":30.2992,"la2":30.254,"lo1":-89.0895,"lo2":-89.0443,"dy":0.0025,"dx":0.0025,"nx":19,"ny":19,"refTime":"2026-05-05T03:00:00:Z","depth":"0","parameterNumber":2,"parameterNumberName":"U-component_of_CURRENTS"},"data":[0,0,0,0.3253,0.3258,0.3515,0.3516,0.3937,0.3941,0,0,0,0,0,0,0,0,0,0,0,0.3158,0.3159,0.3252,0.3258,0.3514,0.3516,0.3936,0.3941,0,0,0,0,0,0,0,0,0,0,0,0.3157,0.3159,0.3161,0.3259,0.3514,0.3516,0.3935,0.372,0,0,0,0,0,0,0,0,0,0,0.346,0.3345,0.3158,0.3161,0.3261,0.3514,0.3516,0.3709,0.3734,0.3845,0,0.388,0,0.3925,0.397,0.3972,0,0,0,0.3266,0.3324,0.3407,0.3161,0.3263,0.3513,0.3401,0.3722,0.375,0.3878,0.3886,0.3901,0.3932,0.3973,0.3975,0.4374,0.4375,0,0,0.3252,0.3201,0.3386,0.3423,0.3328,0.3393,0.3409,0.3738,0.3762,0.3887,0.3911,0.3939,0.3976,0.3979,0.4373,0.4374,0,0,0,0.3206,0.3191,0.3263,0.3406,0.3449,0.34,0.3419,0.3747,0.3774,0.3916,0.3944,0.3979,0.3984,0.4372,0.4373,0.4376,0,0,0,0.3198,0.3164,0.3256,0.3228,0.3441,0.3586,0.3419,0.3751,0.3789,0.3942,0.3979,0.3988,0.437,0.4372,0.4373,0.4462,0,0,0,0.3146,0.3159,0.3189,0.3225,0.3335,0.3581,0.3627,0.3759,0.3808,0.3972,0.399,0.437,0.4372,0.4371,0.4456,0.447,0,0,0,0.3085,0.3172,0.3188,0.3329,0.3332,0.3574,0.3625,0.3822,0.3965,0.3981,0.4371,0.4373,0.437,0.4452,0.4467,0.4436,0.4449,0,0,0.3168,0.318,0.3276,0.3299,0.3538,0.3539,0.3768,0.3958,0.4037,0.4268,0.4277,0.4374,0.4456,0.447,0.458,0.4588,0,0,0,0.329,0.3358,0.3438,0.358,0.3724,0.3843,0.398,0.4047,0.4233,0.4131,0.4424,0.448,0.4485,0.4461,0.4469,0.4287,0.4385,0.4384,0.4384,0.3331,0.3453,0.3624,0.3777,0.3913,0.4079,0.4188,0.4303,0.4336,0.4401,0.4513,0.4588,0.4563,0.4568,0.4381,0.4506,0.4506,0.4506,0.4506,0.3476,0.359,0.3731,0.3928,0.4059,0.4225,0.4413,0.4437,0.4609,0.459,0.459,0.451,0.4576,0.4374,0.4507,0.4507,0.4507,0.4507,0.4507,0.3504,0.3571,0.3685,0.3921,0.4112,0.4277,0.4454,0.4575,0.467,0.4727,0.4665,0.4663,0.4457,0.4682,0.4682,0.4683,0.4683,0.4684,0.4684,0.346,0.3583,0.3704,0.3914,0.4029,0.421,0.4476,0.4603,0.4727,0.4754,0.4752,0.4484,0.4643,0.4603,0.4691,0.469,0.4689,0.4688,0.4688,0.3563,0.355,0.3716,0.3823,0.4035,0.4094,0.4369,0.4584,0.4716,0.4759,0.4541,0.4743,0.4753,0.4746,0.4711,0.4822,0.4822,0.4822,0.4822,0.358,0.3601,0.3747,0.3844,0.3961,0.4052,0.4149,0.4361,0.4492,0.4473,0.4493,0.4386,0.4389,0.4371,0.4372,0.4327,0.4339,0.4338,0.4337,0.3668,0.3688,0.3767,0.3817,0.3909,0.3962,0.3936,0.3925,0.4123,0.4298,0.4246,0.4267,0.4088,0.4107,0.4059,0.4076,0.3997,0,0]},{"header":{"parameterUnit":"m.s-1","parameterCategory":2,"la1":30.2992,"la2":30.254,"lo1":-89.0895,"lo2":-89.0443,"dy":0.0025,"dx":0.0025,"nx":19,"ny":19,"refTime":"2026-05-05T03:00:00:Z","depth":"0","parameterNumber":3,"parameterNumberName":"V-component_of_CURRENTS"},"data":[0,0,0,0.0267,0.0266,0.0216,0.0215,0.0096,0.0095,0,0,0,0,0,0,0,0,0,0,0,0.0288,0.0288,0.0267,0.0266,0.0216,0.0215,0.0096,0.0095,0,0,0,0,0,0,0,0,0,0,0,0.0288,0.0288,0.0288,0.0266,0.0216,0.0215,0.0096,0.0143,0,0,0,0,0,0,0,0,0,0,0.0197,0.0223,0.0288,0.0288,0.0266,0.0216,0.0215,0.0146,0.014,0.0108,0,0.0118,0,0.0109,0.0087,0.0087,0,0,0,0.0247,0.0228,0.0226,0.0288,0.0266,0.0216,0.0233,0.0143,0.0137,0.0101,0.0117,0.0112,0.0107,0.0086,0.0086,0.0124,0.0125,0,0,0.025,0.026,0.0231,0.0223,0.0274,0.0235,0.0232,0.014,0.0134,0.0116,0.011,0.0105,0.0086,0.0085,0.0122,0.0124,0,0,0,0.0271,0.0262,0.0263,0.0227,0.0226,0.0234,0.023,0.0138,0.0142,0.0108,0.0104,0.0085,0.0084,0.0121,0.0123,0.0289,0,0,0,0.0271,0.0276,0.0264,0.0267,0.0229,0.0186,0.023,0.0148,0.0138,0.0104,0.0085,0.0082,0.012,0.0122,0.0282,0.0403,0,0,0,0.0286,0.0276,0.028,0.0268,0.0256,0.0188,0.0186,0.0146,0.0135,0.0087,0.0082,0.0119,0.0122,0.0275,0.039,0.0496,0,0,0,0.0283,0.0306,0.0281,0.0293,0.0257,0.0254,0.0186,0.0158,0.0124,0.0084,0.012,0.0123,0.0273,0.0382,0.0487,0.0675,0.0729,0,0,0.0314,0.031,0.0316,0.0293,0.0326,0.0258,0.0307,0.0228,0.0164,0.0139,0.014,0.0284,0.0389,0.0494,0.0848,0.0897,0,0,0,0.0326,0.0346,0.0342,0.0356,0.0336,0.0394,0.0307,0.0306,0.0314,0.0162,0.0299,0.0361,0.0421,0.0517,0.0556,0.032,0.0137,0.0136,0.0136,0.0387,0.0388,0.0444,0.0466,0.0477,0.0476,0.0523,0.0518,0.0398,0.0457,0.0505,0.0718,0.0823,0.0855,0.0608,0.0488,0.0489,0.0489,0.049,0.0479,0.0539,0.0566,0.0633,0.069,0.0743,0.0777,0.0743,0.0823,0.0696,0.0744,0.07,0.0908,0.0629,0.0501,0.0499,0.0497,0.0496,0.0496,0.0547,0.0598,0.0636,0.0777,0.0924,0.0963,0.1166,0.1113,0.1022,0.1081,0.1136,0.1135,0.0882,0.1077,0.1078,0.1079,0.108,0.108,0.1081,0.0625,0.0673,0.0814,0.0953,0.1094,0.1284,0.1408,0.1491,0.1488,0.1384,0.1384,0.0958,0.0898,0.0865,0.1097,0.1094,0.1092,0.1091,0.109,0.0752,0.0779,0.0983,0.113,0.1441,0.1709,0.1803,0.1998,0.1998,0.2025,0.1447,0.1531,0.1503,0.147,0.1452,0.1822,0.1822,0.1822,0.1823,0.0859,0.0879,0.1175,0.1415,0.1704,0.1913,0.2319,0.2429,0.2099,0.1846,0.1609,0.1463,0.1444,0.1396,0.1366,0.1338,0.167,0.1669,0.1668,0.0989,0.1061,0.1296,0.1505,0.1823,0.2147,0.2549,0.2713,0.2122,0.1623,0.1244,0.1251,0.0981,0.097,0.084,0.0817,0.075,0,0]}],[{"header":{"parameterUnit":"m.s-1","parameterCategory":2,"la1":30.2992,"la2":30.254,"lo1":-89.0895,"lo2":-89.0443,"dy":0.0025,"dx":0.0025,"nx":19,"ny":19,"refTime":"2026-05-05T03:00:00:Z","depth":"2","parameterNumber":2,"parameterNumberName":"U-component_of_CURRENTS"},"data":[0,0,0,0.2755,0.2759,0.2895,0.2895,0.3111,0.3114,0,0,0,0,0,0,0,0,0,0,0,0.2702,0.2704,0.2755,0.2759,0.2895,0.2896,0.3111,0.3114,0,0,0,0,0,0,0,0,0,0,0,0.2702,0.2703,0.2705,0.276,0.2895,0.2896,0.3111,0.2995,0,0,0,0,0,0,0,0,0,0,0.2856,0.2791,0.2703,0.2705,0.276,0.2895,0.2896,0.2989,0.3002,0.3065,0,0.3093,0,0.3119,0.313,0.3131,0,0,0,0.2749,0.2779,0.2835,0.2705,0.2762,0.2895,0.2831,0.2996,0.3011,0.3083,0.3096,0.3104,0.3122,0.3132,0.3133,0.3636,0.3639,0,0,0.2741,0.2711,0.2824,0.2845,0.2809,0.2826,0.2835,0.3004,0.3015,0.3096,0.3109,0.3126,0.3133,0.3135,0.3632,0.3636,0,0,0,0.2727,0.2706,0.2756,0.2836,0.2864,0.2831,0.2841,0.3007,0.303,0.3111,0.3128,0.3135,0.3138,0.3628,0.3634,0.3673,0,0,0,0.2721,0.2699,0.2752,0.2733,0.286,0.2929,0.2839,0.3017,0.3037,0.3127,0.3135,0.314,0.3624,0.3631,0.3663,0.3732,0,0,0,0.2694,0.2695,0.2718,0.2732,0.2798,0.2926,0.2957,0.3021,0.3049,0.3131,0.3141,0.3621,0.363,0.3654,0.3718,0.3703,0,0,0,0.2648,0.2712,0.2717,0.2815,0.2797,0.3015,0.2956,0.3034,0.31,0.3136,0.3624,0.3633,0.3651,0.3709,0.3696,0.3448,0.346,0,0,0.2709,0.2717,0.2785,0.2795,0.2974,0.2994,0.3243,0.323,0.3282,0.3559,0.357,0.3666,0.3717,0.3702,0.3954,0.3948,0,0,0,0.2795,0.2831,0.2886,0.2995,0.3142,0.3334,0.3361,0.3431,0.3614,0.337,0.3835,0.3871,0.3854,0.3697,0.3698,0.3675,0.3674,0.3673,0.3672,0.2804,0.2907,0.3056,0.3212,0.3377,0.3565,0.3688,0.384,0.381,0.3926,0.4023,0.4222,0.4068,0.4062,0.4138,0.4138,0.4139,0.4139,0.4139,0.2911,0.3022,0.3201,0.3381,0.3628,0.3859,0.4114,0.4085,0.4283,0.428,0.4255,0.3905,0.4062,0.4146,0.4144,0.4143,0.4143,0.4142,0.4142,0.2901,0.2991,0.3114,0.3411,0.3708,0.3974,0.4178,0.4322,0.4383,0.4412,0.418,0.4174,0.4123,0.4369,0.4369,0.4369,0.437,0.437,0.437,0.2862,0.3002,0.3152,0.342,0.3583,0.3844,0.4196,0.4281,0.433,0.4291,0.4286,0.4299,0.4292,0.4144,0.4375,0.4374,0.4374,0.4373,0.4373,0.2891,0.2921,0.3103,0.3248,0.3552,0.359,0.3927,0.4028,0.4155,0.4079,0.4166,0.4169,0.4117,0.4115,0.3969,0.4141,0.4141,0.4141,0.4141,0.2876,0.2919,0.311,0.325,0.3408,0.3505,0.3416,0.3459,0.3659,0.3678,0.3698,0.357,0.359,0.3501,0.3514,0.3353,0.3365,0.3363,0.3362,0.2921,0.2975,0.3061,0.3189,0.3326,0.3326,0.3025,0.2789,0.2974,0.3331,0.3561,0.4089,0.3951,0.3963,0.3864,0.387,0.3627,0,0]},{"header":{"parameterUnit":"m.s-1","parameterCategory":2,"la1":30.2992,"la2":30.254,"lo1":-89.0895,"lo2":-89.0443,"dy":0.0025,"dx":0.0025,"nx":19,"ny":19,"refTime":"2026-05-05T03:00:00:Z","depth":"2","parameterNumber":3,"parameterNumberName":"V-component_of_CURRENTS"},"data":[0,0,0,0.0154,0.0154,0.0122,0.0122,-0.0051,-0.0053,0,0,0,0,0,0,0,0,0,0,0,0.0162,0.0162,0.0154,0.0154,0.0123,0.0122,-0.0051,-0.0053,0,0,0,0,0,0,0,0,0,0,0,0.0162,0.0162,0.0162,0.0154,0.0123,0.0122,-0.005,0.0001,0,0,0,0,0,0,0,0,0,0,0.0047,0.008,0.0162,0.0162,0.0154,0.0123,0.0122,0.0005,-0.0002,-0.0067,0,-0.0056,0,-0.0051,-0.0065,-0.0066,0,0,0,0.0132,0.0086,0.0082,0.0162,0.0154,0.0123,0.0131,0.0002,-0.0006,-0.0077,-0.0058,-0.0064,-0.0054,-0.0067,-0.0067,-0.0112,-0.0111,0,0,0.0134,0.0141,0.0089,0.0078,0.0164,0.0132,0.013,-0.0002,-0.0009,-0.0059,-0.0067,-0.0056,-0.0068,-0.0069,-0.0113,-0.0112,0,0,0,0.0154,0.0143,0.0145,0.0084,0.0093,0.0132,0.0129,-0.0004,-0.0,-0.0069,-0.0058,-0.0069,-0.0071,-0.0114,-0.0113,0.0091,0,0,0,0.0154,0.0156,0.0146,0.0148,0.0098,0.0063,0.013,0.0009,-0.0005,-0.0058,-0.0069,-0.0073,-0.0115,-0.0113,0.0083,0.0202,0,0,0,0.016,0.0156,0.016,0.0149,0.0146,0.0066,0.0061,0.0006,0.0001,-0.0066,-0.0073,-0.0116,-0.0114,0.0077,0.0189,0.0287,0,0,0,0.0157,0.018,0.0161,0.0174,0.0147,0.0125,0.0062,0.0029,-0.0019,-0.007,-0.0115,-0.0113,0.0074,0.0181,0.0279,0.0301,0.034,0,0,0.0187,0.0183,0.0189,0.0172,0.0192,0.0127,0.0163,0.008,-0.0007,-0.0089,-0.0089,0.0086,0.0188,0.0285,0.0426,0.0463,0,0,0,0.0198,0.0217,0.0213,0.0219,0.0186,0.0234,0.0139,0.0144,0.0132,-0.002,0.0073,0.0131,0.0186,0.0181,0.021,-0.0102,-0.0103,-0.0103,-0.0103,0.0254,0.0246,0.0299,0.0306,0.0293,0.0291,0.0347,0.0335,0.0197,0.0256,0.0287,0.049,0.0487,0.0509,0.0256,0.0257,0.0258,0.0258,0.0259,0.0338,0.0392,0.0405,0.0461,0.0494,0.052,0.0566,0.0551,0.0622,0.0484,0.0526,0.0384,0.0553,0.0275,0.0272,0.027,0.0268,0.0267,0.0266,0.0394,0.0442,0.0478,0.0592,0.0717,0.0739,0.0941,0.0908,0.0829,0.0892,0.0806,0.0801,0.0628,0.0875,0.0876,0.0877,0.0878,0.0879,0.0879,0.0453,0.0505,0.0632,0.0757,0.0878,0.1045,0.117,0.1238,0.1177,0.1053,0.1051,0.0698,0.0678,0.0662,0.0895,0.0892,0.089,0.0888,0.0887,0.0544,0.0584,0.0769,0.0901,0.1183,0.1421,0.15,0.1585,0.1576,0.1537,0.1133,0.1122,0.1058,0.1031,0.1022,0.1334,0.1334,0.1334,0.1334,0.0628,0.0652,0.092,0.1138,0.1407,0.1596,0.1855,0.1797,0.1591,0.138,0.1377,0.1233,0.1215,0.1147,0.1117,0.1104,0.1439,0.1439,0.1439,0.0725,0.0796,0.1,0.1204,0.1502,0.1791,0.1993,0.187,0.1513,0.1439,0.1353,0.1349,0.1122,0.1099,0.097,0.0933,0.0901,0,0]}],[{"header":{"parameterUnit":"m.s-1","parameterCategory":2,"la1":30.2992,"la2":30.254,"lo1":-89.0895,"lo2":-89.0443,"dy":0.0025,"dx":0.0025,"nx":19,"ny":19,"refTime":"2026-05-05T03:00:00:Z","depth":"4","parameterNumber":2,"parameterNumberName":"U-component_of_CURRENTS"},"data":[0,0,0,0.1656,0.1656,0.1675,0.1675,0.1643,0.1642,0,0,0,0,0,0,0,0,0,0,0,0.1658,0.1658,0.1656,0.1656,0.1675,0.1675,0.1643,0.1642,0,0,0,0,0,0,0,0,0,0,0,0.1658,0.1658,0.1658,0.1656,0.1675,0.1675,0.1643,0.1645,0,0,0,0,0,0,0,0,0,0,0.1634,0.1663,0.1658,0.1658,0.1656,0.1675,0.1675,0.1645,0.1644,0.1615,0,0.1622,0,0.1622,0.1638,0.1638,0,0,0,0.1664,0.1664,0.1644,0.1658,0.1656,0.1675,0.1669,0.1645,0.1644,0.1614,0.1621,0.162,0.1621,0.1638,0.1637,0.1588,0.1588,0,0,0.1663,0.1683,0.1645,0.1643,0.1664,0.1668,0.1669,0.1645,0.1658,0.1621,0.162,0.1621,0.1637,0.1637,0.1588,0.1588,0,0,0,0.1654,0.1683,0.1665,0.1645,0.1647,0.1668,0.167,0.166,0.1648,0.1619,0.162,0.1637,0.1636,0.1588,0.1588,0.1847,0,0,0,0.1654,0.1676,0.1665,0.168,0.1648,0.1667,0.1685,0.165,0.1647,0.162,0.1637,0.1635,0.1588,0.1588,0.184,0.1857,0,0,0,0.1657,0.1677,0.1675,0.1681,0.1682,0.1667,0.1655,0.165,0.1646,0.1638,0.1635,0.1588,0.1588,0.1834,0.1848,0.2067,0,0,0,0.1682,0.1647,0.1676,0.1597,0.1681,0.1593,0.1656,0.1638,0.1628,0.1636,0.1588,0.1588,0.1833,0.1842,0.2059,0.1636,0,0,0,0.1634,0.1643,0.1574,0.1598,0.1499,0.1591,0.1589,0.164,0.1618,0.1593,0.1593,0.1843,0.1847,0.2066,0.1627,0,0,0,0,0.155,0.152,0.1481,0.1437,0.14,0.1534,0.1562,0.165,0.1769,0.1611,0.1766,0.1756,0.1891,0.1613,0.1587,0.1587,0.1587,0.1587,0.1588,0.1531,0.1461,0.1379,0.1346,0.1357,0.149,0.1639,0.1768,0.1738,0.187,0.1918,0.2165,0.1874,0.1903,0.1904,0.1905,0.1906,0.1907,0.1908,0.1429,0.1353,0.1362,0.129,0.1424,0.148,0.1771,0.1911,0.2172,0.2071,0.2197,0.1832,0.1931,0.1927,0.1923,0.192,0.1918,0.1917,0.1916,0.1403,0.1362,0.1347,0.1347,0.1453,0.1616,0.1828,0.2083,0.2332,0.2486,0.2233,0.2328,0.2373,0.2606,0.2607,0.2608,0.2609,0.261,0.2611,0.1384,0.1352,0.1352,0.1413,0.1467,0.1632,0.1941,0.2087,0.2382,0.2386,0.2558,0.24,0.2377,0.2408,0.2627,0.2624,0.2622,0.2621,0.2619,0.1243,0.1313,0.1319,0.1369,0.1484,0.1565,0.1884,0.2049,0.2305,0.2362,0.2377,0.2384,0.2253,0.2234,0.2255,0.2439,0.2434,0.243,0,0.1188,0.1199,0.1196,0.1235,0.1352,0.1487,0.1651,0.1828,0.2077,0.2062,0.2326,0.2339,0.2342,0.2177,0.2154,0.2166,0,0,0,0.1069,0.11,0.1064,0.1109,0.1201,0.1396,0.1666,0.1687,0.2081,0.2003,0.2316,0.2346,0.227,0.2677,0.2493,0.2465,0.2504,0,0]},{"header":{"parameterUnit":"m.s-1","parameterCategory":2,"la1":30.2992,"la2":30.254,"lo1":-89.0895,"lo2":-89.0443,"dy":0.0025,"dx":0.0025,"nx":19,"ny":19,"refTime":"2026-05-05T03:00:00:Z","depth":"4","parameterNumber":3,"parameterNumberName":"V-component_of_CURRENTS"},"data":[0,0,0,0.017,0.0172,0.0222,0.0222,0.0311,0.0312,0,0,0,0,0,0,0,0,0,0,0,0.0148,0.0149,0.017,0.0172,0.0222,0.0222,0.0311,0.0312,0,0,0,0,0,0,0,0,0,0,0,0.0148,0.0148,0.0149,0.0172,0.0222,0.0222,0.0311,0.0265,0,0,0,0,0,0,0,0,0,0,0.0212,0.019,0.0148,0.0149,0.0172,0.0222,0.0222,0.0262,0.0268,0.0299,0,0.031,0,0.0321,0.032,0.032,0,0,0,0.0163,0.0186,0.0203,0.0149,0.0173,0.0222,0.0197,0.0265,0.0271,0.0306,0.0311,0.0315,0.0323,0.032,0.0321,0.0431,0.0431,0,0,0.016,0.0154,0.0199,0.0207,0.0192,0.0195,0.0199,0.0268,0.0276,0.0312,0.0317,0.0324,0.0321,0.0322,0.043,0.0431,0,0,0,0.0158,0.0153,0.0167,0.0203,0.0215,0.0197,0.0201,0.0273,0.0279,0.0318,0.0325,0.0322,0.0323,0.043,0.043,0.0496,0,0,0,0.0156,0.0152,0.0166,0.0162,0.0214,0.0242,0.0204,0.0274,0.0282,0.0325,0.0322,0.0324,0.0429,0.043,0.0493,0.0526,0,0,0,0.0145,0.0151,0.0159,0.0162,0.0189,0.0241,0.025,0.0275,0.0288,0.032,0.0324,0.0429,0.043,0.0491,0.0521,0.0535,0,0,0,0.0133,0.0171,0.0159,0.0224,0.0188,0.0278,0.025,0.0313,0.0348,0.0322,0.0429,0.043,0.049,0.0519,0.0532,0.0517,0,0,0,0.0179,0.0176,0.0222,0.0213,0.0327,0.027,0.036,0.0383,0.0366,0.0406,0.0408,0.0494,0.0521,0.0534,0.057,0,0,0,0,0.0237,0.0266,0.0301,0.0365,0.0412,0.044,0.0447,0.043,0.0449,0.0391,0.0494,0.0509,0.0515,0.0499,0.0435,0.0435,0.0434,0.0434,0.0434,0.0271,0.0328,0.0421,0.049,0.0539,0.0563,0.0564,0.0537,0.0526,0.0529,0.0562,0.0618,0.0605,0.0558,0.0559,0.0559,0.0559,0.056,0.056,0.0357,0.0425,0.0495,0.0598,0.0644,0.0701,0.0689,0.0657,0.0647,0.0616,0.0618,0.057,0.0566,0.0565,0.0564,0.0563,0.0563,0.0562,0.0562,0.0391,0.0433,0.0497,0.0646,0.0741,0.0783,0.0825,0.0788,0.0719,0.0722,0.0689,0.0657,0.065,0.0726,0.0726,0.0726,0.0726,0.0727,0.0727,0.0392,0.0462,0.0564,0.0703,0.0798,0.0889,0.0917,0.0884,0.0818,0.0765,0.0747,0.0673,0.0668,0.0659,0.073,0.073,0.0729,0.0729,0.0729,0.0442,0.0476,0.0624,0.0727,0.0931,0.0986,0.1022,0.094,0.0908,0.0819,0.077,0.0767,0.0737,0.073,0.0721,0.0814,0.0814,0.0814,0,0.0471,0.0499,0.0695,0.0849,0.0995,0.105,0.1037,0.0987,0.0865,0.0871,0.0866,0.0815,0.0811,0.078,0.0773,0.0766,0,0,0,0.0513,0.057,0.0711,0.0871,0.1031,0.1027,0.1033,0.0997,0.0909,0.0827,0.0816,0.0816,0.0757,0.074,0.0687,0.068,0.0662,0,0]}]]